Regional Weather Roundup
Issued by NWS State College, PA

Home | Current Version | Previous Version | Graphics & Text | Print | Product List | Glossary On
Versions: 1 2 3 4 5 6 7 8 9 10 11 12 13 14 15 16 17 18 19 20 21 22 23 24 25 26 27 28 29 30 31 32 33 34 35 36 37 38 39 40 41 42 43 44 45 46 47 48 49 50
000
ASUS41 KCTP 240010
RWRCTP

REGIONAL WEATHER ROUNDUP
NATIONAL WEATHER SERVICE STATE COLLEGE PA
700 PM EST FRI FEB 23 2018

Note: "fair" indicates few or no clouds below 12,000 feet with no
significant weather and/or obstructions to visibility.

* = STATION THAT DOES NOT REPORT PRECIPITATION /E.G. RAIN...SNOW...ETC/
    THUNDER OR FOG.

PAZ002>004-007>009-013>016-020>023-029>032-240100-
WESTERN PENNSYLVANIA

CITY           SKY/WX    TMP DP  RH WIND       PRES   REMARKS
ERIE           CLOUDY    47  44  90 W12       30.17R
MEADVILLE      MOCLDY    53  53 100 W7        30.15R
FRANKLIN*      CLOUDY    57  55  93 W8        30.15R
NEW CASTLE     CLOUDY    61  59  93 SW6       30.17R
BEAVER COUNTY  CLOUDY    59  55  88 W7        30.17R
BUTLER*        RAIN      58  57  97 SW7       30.17R FOG
PITTSBURGH INT LGT RAIN  62  57  83 SW9       30.17R
PITTSBURGH     CLOUDY    61  55  81 SW13      30.17R
INDIANA*       CLOUDY    57  57 100 CALM      30.21R
LATROBE        CLOUDY    63  57  82 SW14      30.19S
WASHINGTON CO* CLOUDY    63  57  81 SW10G20   30.22R
$$

PAZ004>006-010>012-017>019-024>028-033>037-041-042-045-046-049>053-240100-
CENTRAL PENNSYLVANIA

CITY           SKY/WX    TMP DP  RH WIND       PRES   REMARKS
BRADFORD       FOG       47  47 100 SW5       30.13R VSB 1/4
DUBOIS         CLOUDY    54  52  93 SW9       30.15S FOG
CLEARFIELD     CLOUDY    40  40 100 NE3       30.19S FOG
JOHNSTOWN      MOCLDY    51  48  89 S3        30.20R
ALTOONA        CLOUDY    40  40 100 S3        30.24F FOG
STATE COLLEGE  CLOUDY    39  39 100 SW10      30.22F FOG
WILLIAMSPORT   CLOUDY    40  38  93 VRB7      30.25F
SELINSGROVE    CLOUDY    41  38  89 S8        30.29S
FT INDIANTOWN  CLOUDY    41  41 100 S3        30.31F FOG
CAPITAL CITY   CLOUDY    44  41  89 S6        30.31F
HARRISBURG     CLOUDY    43  40  89 S5        30.30F
YORK           CLOUDY    42  42 100 CALM      30.31S FOG
$$

PAZ038>040-043-044-047-048-054-055-060>062-067>071-240100-
EASTERN PENNSYLVANIA

CITY           SKY/WX    TMP DP  RH WIND       PRES   REMARKS
SCRANTON       CLOUDY    39  36  89 SW10      30.25S
MOUNT POCONO   CLOUDY    32  32 100 S6        30.23F FOG
ALLENTOWN      CLOUDY    40  38  93 CALM      30.30F FOG
QUAKERTOWN*    CLOUDY    39  39 100 CALM      30.31S FOG
READING        CLOUDY    41  41 100 CALM      30.30F FOG
LANCASTER      CLOUDY    42  40  92 S5        30.31F
COATESVILLE    FOG       41  41 100 CALM      30.31F VSB<1/4
POTTSTOWN      CLOUDY    40  40 100 CALM      30.32S FOG
BLUE BELL      CLOUDY    41  41 100 CALM      30.31F
DOYLESTOWN     CLOUDY    40  40 100 CALM      30.30F FOG
WILLOW GROVE   NOT AVBL
NORTH PHILA    CLOUDY    44  42  93 CALM      30.32F FOG
PHILADELPHIA   CLOUDY    43  42  97 CALM      30.32F FOG
$$




USA.gov is the U.S. government's official web portal to all federal, state and local government web resources and services.